ジョンソン彗星

C/2015 V2 ( Johnson )

English version
Home page
Updated on March 20, 2017

---------------------------------------------------------------------

・ プロフィール

発見日 2015年11月3日
発見光度 17.1等
発見者 J. A. Johnson (Catalina Sky Survey)

・ 写真集

・ 軌道要素

Epoch 2017 June 16.0 TT = JDT 2457920.5
T 2017 June 12.33706 TT                                 MPCW
q   1.6369567            (2000.0)            P               Q
z  -0.0010949      Peri.  164.89681     -0.49022306     +0.49433394
 +/-0.0000011      Node    69.84951     -0.85775389     -0.12741301
e   1.0017923      Incl.   49.87663     -0.15472430     -0.85988364
From 1271 observations 2015 Nov. 3-2016 Nov. 9, mean residual 0".4.

・ 星図

・ 光度変化

        m1 = 5.0 + 5 logΔ + 10.0 log r

---------------------------------------------------------------------

軌道要素はM.P.E.C. 2016-V116に掲載されたものです。
星図はステラナビゲータ Ver.8 (アストロアーツ) で作成したものです。
光度グラフはComet for Windowsで作成したものです。

---------------------------------------------------------------------

Copyright(C) Seiichi Yoshida (comet@aerith.net). All rights reserved.